GW2235 Weather Reports


time (UTC)temp
C
wind
direction
speed
KPH
gust
KPH
rain 1hr
cm
rain 24hr
cm
rain mn
cm
humidity
%
barometer
mb
20260510060000 8 184 0.0 0.0 0.00 0.97 0.00 98 1012.2
20260510054458 7 184 0.0 0.0 0.00 0.97 0.00 97 1011.9
20260510052958 7 184 0.0 0.0 0.00 0.97 0.00 97 1011.9
20260510051459 7 184 0.0 0.0 0.00 0.97 0.00 97 1012.0
20260510050001 7 184 0.0 0.0 0.00 0.97 0.00 97 1011.9
20260510044458 6 184 0.0 6.4 0.00 0.97 0.00 96 1011.9
20260510043000 5 184 0.0 0.0 0.00 0.97 0.00 96 1011.6
20260510041502 5 184 0.0 0.0 0.00 0.97 0.00 95 1011.2
20260510040005 6 184 0.0 0.0 0.00 0.97 0.00 95 1011.2
20260510034503 6 184 0.0 0.0 0.00 0.99 0.97 95 1011.2
20260510033001 6 184 0.0 0.0 0.00 0.99 0.97 95 1011.1
20260510031500 6 184 0.0 0.0 0.00 0.99 0.97 95 1011.0
20260510030004 6 184 0.0 0.0 0.00 0.99 0.97 94 1011.2
20260510024501 7 185 0.0 0.0 0.00 0.99 0.97 94 1011.1
20260510023000 7 184 0.0 0.0 0.00 0.99 0.97 93 1011.1
20260510021502 7 184 0.0 0.0 0.00 0.99 0.97 93 1011.0
20260510014500 8 184 0.0 0.0 0.00 0.99 0.97 93 1010.9
20260510013004 8 184 0.0 0.0 0.00 0.99 0.97 92 1010.9
20260510011501 9 184 0.0 0.0 0.00 0.99 0.97 91 1010.4
20260510010003 10 184 0.0 0.0 0.00 0.99 0.97 90 1010.3
20260510001501 11 184 0.0 0.0 0.00 0.99 0.97 85 1010.1
20260510000005 12 185 0.0 6.4 0.00 0.99 0.97 79 1010.1
20260509234501 13 154 1.6 14.5 0.00 0.99 0.97 77 1009.7
20260509231503 14 186 0.0 4.8 0.00 0.99 0.97 76 1009.3
20260509230003 13 186 1.6 6.4 0.00 0.99 0.97 75 1009.4
20260509224501 13 163 4.8 11.3 0.00 1.02 0.97 77 1009.2
20260509223001 13 178 6.4 17.7 0.00 1.02 0.97 77 1009.5
20260509221502 13 195 3.2 17.7 0.00 1.02 0.97 80 1009.6
20260509220004 12 203 4.8 11.3 0.00 1.02 0.97 83 1009.7
20260509214501 12 232 6.4 11.3 0.00 1.02 0.97 84 1009.8
20260509213004 12 180 9.7 16.1 0.00 1.02 0.97 83 1010.0
20260509211503 12 214 4.8 25.7 0.00 1.02 0.97 88 1010.0
20260509210003 12 202 3.2 11.3 0.00 1.02 0.97 92 1010.1
20260509204502 11 172 1.6 9.7 0.00 1.02 0.97 93 1010.3
20260509203002 11 215 3.2 9.7 0.03 1.02 0.97 93 1010.3
20260509201459 10 216 1.6 6.4 0.03 1.02 0.97 93 1010.3
20260509200004 10 216 0.0 4.8 0.08 1.02 0.97 93 1010.4
20260509194501 10 216 0.0 0.0 0.13 1.02 0.97 94 1010.6
20260509191500 10 216 1.6 6.4 0.20 0.99 0.94 93 1011.1
20260509184500 10 155 1.6 4.8 0.23 0.89 0.84 94 1011.7
20260509183000 10 146 1.6 4.8 0.20 0.84 0.79 94 1011.3
20260509181504 10 155 0.0 4.8 0.23 0.79 0.74 95 1011.4
20260509180006 10 155 0.0 4.8 0.25 0.74 0.69 95 1011.6
20260509174501 10 155 0.0 8.0 0.23 0.66 0.61 95 1011.5
20260509173001 10 156 0.0 8.0 0.23 0.64 0.58 95 1011.6
20260509170002 10 87 0.0 4.8 0.15 0.48 0.43 94 1011.5
20260509164500 10 87 1.6 6.4 0.10 0.43 0.38 94 1011.6
20260509163000 10 163 3.2 11.3 0.10 0.41 0.36 94 1011.8
20260509154501 10 107 0.0 3.2 0.05 0.33 0.28 94 1011.8
20260509153002 10 97 1.6 6.4 0.05 0.30 0.25 94 1011.9
20260509151500 10 217 0.0 8.0 0.08 0.30 0.25 94 1011.9
20260509150005 9 219 1.6 8.0 0.08 0.28 0.23 94 1011.9
20260509141500 9 220 0.0 6.4 0.08 0.23 0.18 94 1012.2
20260509134459 9 262 0.0 0.0 0.05 0.18 0.13 93 1011.8
20260509132959 9 262 0.0 0.0 0.03 0.15 0.10 95 1011.7
20260509131500 9 262 0.0 0.0 0.03 0.15 0.10 95 1011.7
20260509130000 8 262 0.0 1.6 0.00 0.13 0.08 96 1011.5
20260509123001 8 262 0.0 0.0 0.00 0.13 0.08 97 1011.7
20260509121501 8 262 0.0 0.0 0.03 0.13 0.08 97 1011.8
20260509120003 8 262 0.0 3.2 0.03 0.13 0.08 97 1011.8
20260509113000 7 262 0.0 0.0 0.03 0.10 0.05 97 1011.8
20260509111459 7 262 0.0 0.0 0.03 0.10 0.05 97 1011.8
20260509110000 7 262 0.0 0.0 0.03 0.10 0.05 97 1011.7
20260509104501 7 261 0.0 3.2 0.03 0.10 0.05 97 1011.7
20260509103002 7 261 0.0 4.8 0.00 0.08 0.03 96 1011.6
20260509101503 7 261 0.0 0.0 0.00 0.08 0.03 96 1011.4
20260509100004 7 261 0.0 0.0 0.00 0.08 0.03 96 1011.4
20260509094459 7 261 0.0 0.0 0.00 0.08 0.03 96 1011.5
20260509092959 7 261 0.0 0.0 0.00 0.08 0.03 96 1011.4
20260509081501 7 261 0.0 3.2 0.00 0.08 0.03 96 1012.5
20260509074458 7 261 0.0 0.0 0.00 0.08 0.03 95 1012.5
20260509073001 7 261 0.0 0.0 0.00 0.08 0.03 95 1012.8
20260509071459 7 261 0.0 0.0 0.00 0.08 0.03 95 1012.7
20260509064458 7 281 0.0 0.0 0.03 0.08 0.03 95 1012.2
20260509062957 7 281 1.6 4.8 0.03 0.08 0.03 95 1012.4
20260509061459 7 281 1.6 6.4 0.03 0.08 0.03 95 1012.7